"Pseudo-MPEC" for ST26F54

Created 2026 Jun 17 18:35:08 UT using Find_Orb

Click here for an explanation of pseudo-MPECs

 
 Astrometry: 
     ST26F54* C2026 06 16.44892318 05 08.822+11 49 47.04   ~6GF5 19.41GVNEOCPU68
     ST26F54  C2026 06 16.45226418 05 09.069+11 47 33.47   ~6GF5 19.41GVNEOCPU68
     ST26F54  C2026 06 16.46807818 05 10.319+11 36 59.48   ~6GF5 19.19GVNEOCPU74
     ST26F54  C2026 06 16.47085118 05 10.613+11 35 06.40   ~6GF5 19.19GVNEOCPU74

Station data:
(U68) JPL SynTrack Robotic Telescope, Auberry  (N37.070387 W119.412990)
   US/California.  Observers N. Saini, C. Zhai, R. Trahan, M. Zhan, M. Shao.
   0.28-m f/2.2 Schmidt + CCD.
(U74) JPL SynTrack Robotic Telescope 2, Auberry  (N37.070341 W119.412800)
   US/California.  Observers N. Saini, C. Zhai, R. Trahan, M. Zhan, M. Shao.
   0.36-m f/2.2 Schmidt.

Orbital elements:  ST26F54
   Perihelion 2026 Jun 6.019230 +/- 40.7 TT =  0:27:41.4 (JD 2461197.519230)
Epoch 2026 Jun 16.0 TT = JDT 2461207.5   Earth MOID: 0.0294      AutoNEOCP
M   5.922856841 +/- 25              (J2000 ecliptic)
n   0.593426844 +/- 0.362           Peri.  166.432132 +/- 60
a   1.402462497 +/- 0.571           Node    87.619904 +/- 50
e   0.25870872 +/- 0.274            Incl.   23.390025 +/- 13
P   1.661/606.635d         H 25.41  G  0.15   U 12.1  SR
q 1.039633206 +/- 0.103    Q 1.765291789 +/- 28.4
From 4 observations 2026 June 16 (31.6 min); mean residual 0".45
Residuals in arcseconds: 
260616 U68  .11+  .15-    260616 U74  .47-  .81+    
260616 U68  .06-  .06+    260616 U74  .42+  .72-    

Ephemerides (geocentric):
Date (UTC) HH   RA             Dec           delta  r     elong  mag " sig PA
---- --------  ------------   ------------  ------ ------ -----  --- --------
2026 06 17 19  18 08 57.967   -05 02 31.07  .03022 1.0445 160.7 18.9  39d  72
2026 06 17 20  18 09 05.511   -05 37 21.70  .03016 1.0445 161.2 18.8  40d  72
2026 06 17 21  18 09 13.101   -06 12 21.23  .03009 1.0446 161.8 18.8  41d  71
2026 06 17 22  18 09 20.737   -06 47 29.28  .03004 1.0446 162.3 18.8  44d  71
2026 06 17 23  18 09 28.420   -07 22 45.44  .02998 1.0447 162.9 18.8  46d  71
2026 06 18 00  18 09 36.150   -07 58 09.32  .02993 1.0447 163.4 18.8  47d  71
2026 06 18 01  18 09 43.927   -08 33 40.47  .02988 1.0447 164.0 18.7  49d  72
2026 06 18 02  18 09 51.752   -09 09 18.49  .02983 1.0448 164.6 18.7  50d  73
2026 06 18 03  18 09 59.626   -09 45 02.92  .02979 1.0448 165.1 18.7  52d  73
2026 06 18 04  18 10 07.549   -10 20 53.33  .02975 1.0448 165.7 18.7  52d  74
2026 06 18 05  18 10 15.521   -10 56 49.26  .02971 1.0449 166.2 18.7  53d  75
2026 06 18 06  18 10 23.542   -11 32 50.25  .02968 1.0449 166.8 18.6  53d  75
2026 06 18 07  18 10 31.614   -12 08 55.84  .02965 1.0449 167.3 18.6  53d  76
2026 06 18 08  18 10 39.737   -12 45 05.54  .02963 1.0450 167.8 18.6  54d  76
2026 06 18 09  18 10 47.911   -13 21 18.88  .02960 1.0450 168.4 18.6  54d  76
2026 06 18 10  18 10 56.137   -13 57 35.38  .02958 1.0450 168.9 18.5  55d  76
2026 06 18 11  18 11 04.415   -14 33 54.55  .02957 1.0451 169.4 18.5  56d  75
2026 06 18 12  18 11 12.745   -15 10 15.89  .02955 1.0451 169.9 18.5  58d  75
2026 06 18 13  18 11 21.129   -15 46 38.92  .02955 1.0452 170.4 18.5  59d  75
2026 06 18 14  18 11 29.567   -16 23 03.13  .02954 1.0452 170.9 18.5  60d  75
2026 06 18 15  18 11 38.059   -16 59 28.02  .02954 1.0452 171.4 18.4  61d  76
2026 06 18 16  18 11 46.605   -17 35 53.11  .02954 1.0453 171.8 18.4  62d  76
2026 06 18 17  18 11 55.207   -18 12 17.87  .02954 1.0453 172.3 18.4  62d  76
2026 06 18 18  18 12 03.865   -18 48 41.82  .02955 1.0453 172.7 18.4  62d  77
2026 06 18 19  18 12 12.579   -19 25 04.46  .02956 1.0454 173.1 18.4  63d  77
2026 06 18 20  18 12 21.350   -20 01 25.30  .02957 1.0454 173.4 18.4  63d  77
2026 06 18 21  18 12 30.179   -20 37 43.82  .02959 1.0454 173.7 18.3  63d  78
2026 06 18 22  18 12 39.065   -21 13 59.55  .02961 1.0455 174.0 18.3  63d  78
2026 06 18 23  18 12 48.010   -21 50 12.00  .02963 1.0455 174.2 18.3  63d  78
2026 06 19 00  18 12 57.015   -22 26 20.68  .02966 1.0456 174.3 18.3  63d  79
2026 06 19 01  18 13 06.079   -23 02 25.12  .02969 1.0456 174.4 18.3  63d  79
2026 06 19 02  18 13 15.203   -23 38 24.84  .02973 1.0456 174.4 18.3  63d  79
2026 06 19 03  18 13 24.389   -24 14 19.38  .02976 1.0457 174.4 18.3  62d  80
2026 06 19 04  18 13 33.636   -24 50 08.27  .02980 1.0457 174.3 18.3  62d  80
2026 06 19 05  18 13 42.945   -25 25 51.07  .02985 1.0457 174.1 18.3  62d  80
2026 06 19 06  18 13 52.317   -26 01 27.33  .02989 1.0458 173.9 18.4  62d  81
2026 06 19 07  18 14 01.753   -26 36 56.61  .02994 1.0458 173.7 18.4  61d  81
2026 06 19 08  18 14 11.252   -27 12 18.48  .03000 1.0459 173.4 18.4  61d  81
2026 06 19 09  18 14 20.817   -27 47 32.54  .03005 1.0459 173.0 18.4  61d  81
2026 06 19 10  18 14 30.446   -28 22 38.36  .03011 1.0459 172.6 18.4  61d  81
2026 06 19 11  18 14 40.142   -28 57 35.56  .03018 1.0460 172.3 18.5  61d  81
2026 06 19 12  18 14 49.904   -29 32 23.74  .03024 1.0460 171.8 18.5  60d  82
2026 06 19 13  18 14 59.734   -30 07 02.52  .03031 1.0461 171.4 18.5  60d  82
2026 06 19 14  18 15 09.632   -30 41 31.54  .03038 1.0461 171.0 18.5  60d  82
2026 06 19 15  18 15 19.599   -31 15 50.45  .03046 1.0461 170.5 18.5  60d  82
2026 06 19 16  18 15 29.635   -31 49 58.90  .03054 1.0462 170.0 18.6  59d  82
2026 06 19 17  18 15 39.741   -32 23 56.56  .03062 1.0462 169.6 18.6  59d  82
2026 06 19 18  18 15 49.918   -32 57 43.11  .03070 1.0463 169.1 18.6  59d  82